Location: Alafon
(8.4500°N, 4.2333°E)
Time: 18:32:09
(UTC+00:00)

A-11 Canister half - Pass Details

Date: 11 August 2021
Orbit: 1515 x 1685 km, 47.2° (Epoch: 19 September)

Event Time Altitude Azimuth Distance (km) Brightness Sun altitude
Rises 23:32:12 0° 299° (WNW) 4,930 11.9 -66.3°
Enters shadow 23:33:09 - 297° (WNW) 4,665 11.7 -66.3°
Reaches altitude 10° 23:35:53 10° 289° (WNW) 3,943 - -66.4°
Maximum altitude 23:44:20 31° 232° (SW) 2,645 - -66.6°
Drops below altitude 10° 23:52:44 10° 174° (S) 3,888 - -66.6°
Sets 23:56:23 0° 164° (SSE) 4,852 - -66.5°
